アラン-リゴー彗星

49P/Arend-Rigaux (2018)

English version
Home page
Updated on October 8, 2017

---------------------------------------------------------------------

・ プロフィール

・ 写真集

・ 軌道要素

Epoch 2018 July 21.0 TT = JDT 2458320.5
T 2018 July 15.49713 TT                                 Kobayashi
q   1.4296062            (2000.0)            P               Q
n   0.14618313     Peri.  332.88787     -0.05172726     -0.95687557
a   3.5689288      Node   118.82418     +0.96518841     -0.12138870
e   0.5994299      Incl.   19.04319     +0.25638960     +0.26392030
P   6.74
From 2839 observations 1951 Feb. 7-2014 July 26, mean residual 0".6.
     Nongravitational parameters A1 = +0.02, A2 = -0.0005.

・ 星図

・ 光度変化

        H = 13.5  G = 0.15                       [   , -80]  (              〜2018年 4月26日)
        m1 = 8.0 + 5 logΔ + 30.0 log r(t - 10)  [-80, 117]  (2018年 4月26日〜2018年11月 9日)
        H = 13.5  G = 0.15                       [117,    ]  (2018年11月 9日〜              )

---------------------------------------------------------------------

軌道要素はM.P.E.C. 2015-M77に掲載されたものです。
星図はステラナビゲータ Ver.8 (アストロアーツ) で作成したものです。
光度グラフはComet for Windowsで作成したものです。

---------------------------------------------------------------------

Copyright(C) Seiichi Yoshida (comet@aerith.net). All rights reserved.